Theta_e
325 321 319 315 315 315 309 306 296 294 297 291 290 292 293 299 298 302 302 304 303 308 309 310 311 313 311 308 312 315 315 309 307 299 297 309 324 330 334 335 336 337 337 338 338 340 341 344 344 343 344 344 343 342 341 341 341 341 341 342 345 345 344 344 345 345 345 345 346 345 344 344 346 347 346 346 346 346 346 345 345 344 344 343 343 343 342 342 342 342 342 342 341 341 342 342 342
322 322 317 317 316 309 303 300 292 289 289 287 289 292 295 295 297 299 301 304 305 308 308 316 317 318 319 318 318 315 313 318 317 315 319 325 331 332 335 336 337 336 337 337 339 339 339 341 345 345 345 344 342 340 340 341 342 342 342 342 344 344 345 346 346 346 346 346 345 345 344 347 347 346 346 346 345 345 345 345 345 345 345 344 344 343 342 342 341 341 341 341 341 341 341 341 342
325 320 316 316 310 309 305 300 296 287 288 286 288 292 299 297 297 297 304 307 308 309 313 316 316 317 316 316 312 310 303 321 319 317 319 329 326 328 334 336 337 338 338 338 340 338 338 341 345 346 345 345 343 340 341 342 342 343 342 342 342 343 345 345 345 345 345 345 345 345 345 345 345 346 346 345 346 345 344 343 343 344 343 342 342 343 342 342 341 341 340 340 341 341 341 341 340
324 320 318 311 306 306 298 295 289 291 291 286 287 294 298 300 300 303 306 307 308 306 306 308 307 311 314 310 314 319 315 317 321 318 319 325 327 332 334 336 337 337 337 339 339 338 338 342 345 346 345 345 343 341 341 341 340 341 342 343 343 344 345 345 344 344 344 345 344 344 345 346 345 346 345 345 345 345 345 344 343 343 342 341 341 342 341 341 341 340 340 340 340 340 340 340 340
315 320 317 309 307 302 300 295 293 289 288 286 289 295 299 302 304 304 306 306 306 306 307 307 309 315 318 315 317 309 311 319 320 322 317 321 333 334 334 335 336 335 336 338 339 338 338 343 344 345 344 344 343 341 341 341 341 341 344 344 343 343 344 344 344 344 346 346 346 346 345 345 345 345 345 345 345 345 343 343 342 342 341 342 341 340 340 340 340 340 339 339 340 339 339 339 339
315 314 317 313 306 306 300 295 290 291 293 291 293 298 301 303 304 305 306 306 307 306 306 305 310 307 316 317 319 312 321 314 321 320 318 324 333 334 334 334 334 334 335 336 337 337 338 342 343 345 344 343 342 341 340 340 341 341 342 343 343 343 343 343 343 343 344 344 345 344 344 345 345 344 345 344 345 344 342 341 341 341 341 341 341 341 340 339 339 339 339 338 338 338 338 338 338
314 310 310 308 307 305 295 292 291 292 297 295 298 301 303 303 305 305 305 307 309 308 308 311 318 316 314 317 320 323 325 323 321 320 321 326 333 334 333 333 333 333 334 335 336 337 338 342 344 345 345 343 342 340 340 340 340 342 342 342 342 342 343 344 344 344 344 344 344 344 344 343 344 344 344 344 344 344 343 343 343 342 341 341 340 340 340 339 339 339 338 338 337 337 337 337 337
316 311 307 300 299 300 297 293 295 292 296 296 298 304 304 304 304 305 305 304 305 306 309 314 311 310 309 318 313 321 324 325 323 320 322 328 332 331 332 333 332 331 333 333 335 336 343 341 343 343 344 343 341 340 340 340 340 341 342 342 343 344 344 344 343 344 343 343 343 343 342 342 343 344 343 343 343 343 342 342 340 339 338 339 339 339 338 338 338 337 337 336 336 336 336 336 337
313 312 308 300 298 297 294 296 296 297 296 297 303 306 311 306 306 306 304 305 305 306 307 307 309 307 309 315 313 319 321 322 321 323 326 328 328 329 333 333 331 330 332 333 334 335 338 339 342 343 343 343 342 340 341 341 341 342 342 342 342 343 343 343 343 343 343 342 342 342 341 341 342 342 341 341 341 341 341 341 341 341 339 339 339 338 338 338 336 336 336 335 335 335 336 336 336
311 308 300 300 298 296 293 295 297 298 297 297 303 305 306 306 305 306 304 304 306 306 307 308 307 307 315 314 315 318 317 320 322 323 325 326 326 330 333 332 331 330 331 332 332 334 335 343 340 341 342 343 343 342 342 342 341 342 342 342 342 342 342 342 343 342 342 341 341 341 341 341 341 341 342 342 342 341 342 341 340 338 338 339 339 338 337 337 336 336 335 334 335 335 335 335 335
305 305 306 300 294 293 293 293 295 299 296 297 300 305 307 305 306 304 305 305 304 306 306 314 314 314 316 315 313 319 323 320 322 321 324 324 325 330 331 332 331 332 331 330 331 333 336 337 342 338 340 341 343 344 344 343 342 342 341 341 342 342 342 341 341 341 340 341 341 341 341 341 341 341 341 341 341 341 341 341 341 340 339 338 338 337 337 336 336 335 335 334 334 335 335 335 334
304 301 301 294 293 294 293 295 296 299 295 295 300 303 303 304 304 303 302 304 304 304 306 310 312 317 313 311 311 319 321 318 322 323 322 323 326 331 332 331 332 332 331 330 331 331 333 336 337 341 337 339 339 341 342 343 343 342 342 341 341 341 341 341 341 340 341 341 341 341 341 342 342 341 341 342 341 341 341 341 341 341 340 339 338 337 336 336 335 335 334 334 334 334 334 334 334
306 302 297 296 292 295 295 296 296 298 294 293 298 302 302 302 304 304 302 304 303 304 307 308 318 315 309 311 316 321 318 318 320 321 320 322 328 332 332 331 332 331 331 331 330 330 331 333 335 337 336 335 336 337 338 340 341 342 341 342 342 342 342 342 342 342 341 341 341 341 341 342 342 342 342 342 341 342 341 341 340 340 339 339 338 337 336 335 335 334 333 333 333 333 333 333 333
307 304 301 297 295 296 297 295 296 298 295 294 295 300 303 304 303 304 304 304 303 306 308 312 318 318 314 318 319 317 318 320 319 319 320 322 328 331 330 330 330 330 330 331 330 330 330 332 334 333 335 335 335 335 334 336 338 340 340 342 342 342 343 342 341 341 342 341 341 340 340 340 341 340 340 340 340 340 339 339 339 339 338 337 337 337 336 335 335 334 333 333 333 333 333 332 332
310 307 300 296 295 295 295 297 296 295 295 295 298 300 302 305 304 303 308 304 305 308 311 311 318 315 311 315 314 318 320 322 319 319 321 323 326 329 329 329 329 329 330 330 330 329 330 331 331 331 332 332 333 334 332 334 334 336 338 339 340 340 340 339 338 338 338 338 337 337 337 336 335 336 336 336 336 336 336 334 335 338 338 337 337 336 336 336 334 334 333 332 332 332 332 332 331
312 305 299 297 293 294 296 296 298 297 298 297 299 299 303 305 305 305 305 309 307 311 308 307 315 307 313 317 317 323 323 322 319 320 322 321 324 327 328 328 328 328 328 329 329 328 329 330 329 329 330 331 330 331 332 332 332 333 335 336 336 336 336 335 335 334 332 331 330 331 331 331 330 330 330 330 332 333 333 330 332 336 336 336 335 335 336 335 335 334 333 332 332 332 331 332 332
312 308 299 294 294 294 296 298 298 296 298 298 298 302 302 303 306 307 308 310 309 308 316 318 313 321 320 319 319 325 323 320 319 321 321 320 323 323 325 325 326 326 328 328 328 328 329 329 328 328 329 330 330 331 331 331 332 331 332 332 332 332 332 332 331 328 325 325 325 325 326 326 326 326 328 327 326 328 325 327 330 334 336 335 334 334 335 335 336 334 333 333 332 331 330 328 327
311 303 298 294 295 296 299 300 300 302 301 299 300 300 302 301 304 308 310 309 309 311 314 316 321 320 321 322 326 325 322 318 319 319 319 319 320 321 322 322 323 324 325 326 328 328 328 328 328 328 328 328 329 331 331 332 332 332 332 332 332 330 328 327 328 328 330 326 324 325 325 325 326 326 327 328 327 327 326 325 327 331 334 334 334 334 334 334 334 334 334 332 333 332 327 314 314
304 300 299 299 297 302 305 305 303 299 299 300 301 300 303 303 304 306 305 305 308 307 310 314 316 318 321 323 322 320 318 317 319 319 318 318 319 320 321 321 322 323 323 325 326 328 328 328 328 327 327 328 329 329 331 332 332 332 332 332 331 328 328 328 329 328 325 325 325 324 323 324 325 326 327 327 327 322 326 324 327 329 331 331 332 333 333 333 333 333 333 333 332 330 317 313 314
305 302 298 299 302 303 307 307 305 299 298 299 300 300 302 304 304 305 305 304 305 306 310 310 312 313 317 318 319 318 318 317 318 318 318 318 319 320 320 320 321 323 324 325 325 327 328 327 327 328 327 327 328 328 330 331 331 330 330 330 329 329 328 328 326 326 325 325 325 323 322 323 325 326 327 327 327 325 324 323 324 325 326 327 327 328 330 330 330 329 328 328 322 319 314 313 313
306 302 298 299 303 303 306 303 301 298 299 300 300 301 301 303 303 304 302 304 303 304 312 313 313 316 317 318 317 317 316 316 317 318 318 318 319 320 320 321 321 323 324 325 325 326 327 327 327 327 327 327 327 327 328 329 330 329 329 329 328 328 328 328 325 325 325 325 324 324 322 323 325 325 325 325 325 325 324 324 324 324 323 322 322 319 316 317 318 315 313 313 314 314 314 314 313
304 305 307 302 303 303 307 303 297 297 297 301 299 300 301 304 305 302 305 303 302 306 309 314 317 319 318 318 317 317 316 315 316 317 317 318 318 319 320 319 318 320 320 322 324 326 327 328 328 327 327 327 327 327 327 328 328 327 328 328 328 328 328 328 326 325 325 325 324 324 322 324 324 324 323 323 323 323 322 321 321 321 321 322 319 320 316 314 315 314 313 314 313 312 313 312 312
301 303 304 305 306 305 304 298 298 296 297 299 299 301 302 303 302 301 305 305 305 305 310 313 320 321 321 321 319 317 316 315 315 316 317 317 318 319 319 320 319 319 318 322 324 326 327 328 328 327 327 327 328 328 328 327 327 327 327 327 326 326 326 327 326 326 326 325 324 324 322 322 324 323 322 322 321 321 322 321 321 320 320 320 320 319 317 316 314 313 315 316 314 313 313 313 313
305 303 304 305 306 306 306 303 298 295 298 298 298 300 302 300 301 302 302 305 305 301 309 313 321 322 322 319 318 317 317 316 315 317 318 318 319 319 320 320 320 320 319 320 322 323 326 328 328 327 327 327 328 328 327 326 327 326 326 325 325 324 324 325 326 326 326 326 324 324 323 322 323 322 322 321 321 321 321 321 320 320 320 320 320 318 318 315 314 313 314 313 313 312 313 315 314
303 303 305 306 306 307 308 308 298 295 296 297 298 299 300 301 300 301 302 305 304 302 304 312 322 321 321 320 318 318 317 317 316 316 317 318 319 320 319 320 320 319 319 320 321 321 325 327 328 327 327 327 329 329 328 327 327 326 326 325 325 324 324 324 325 325 325 325 324 324 322 321 321 322 321 320 319 319 320 320 319 319 319 319 318 316 317 317 316 314 315 315 315 315 313 316 312
305 306 306 307 306 304 307 302 297 295 297 296 299 295 294 295 298 297 301 303 304 305 308 312 321 320 319 319 319 319 318 317 317 317 317 318 318 318 317 318 319 318 319 320 321 321 323 326 327 327 328 328 329 329 329 327 327 326 326 325 325 322 324 324 323 323 324 323 323 323 322 322 321 321 320 319 318 318 318 317 317 317 318 318 316 317 315 316 317 314 314 315 315 315 314 315 311
307 307 307 307 308 304 298 300 297 296 297 295 297 295 296 297 297 297 298 302 302 309 307 315 319 319 320 320 320 320 319 318 318 319 318 317 316 317 317 318 318 319 319 319 321 321 321 323 326 327 328 327 329 329 328 328 326 326 326 325 325 323 324 323 322 323 323 322 323 322 321 321 321 320 319 318 318 318 317 316 316 316 316 317 316 318 315 316 317 318 317 315 314 314 314 312 311
308 306 305 306 307 306 299 296 297 296 298 295 297 296 295 294 296 298 298 298 302 308 308 313 317 318 319 319 319 320 320 320 319 319 317 316 316 316 316 317 318 319 319 318 321 322 321 322 324 325 327 328 328 328 327 327 326 325 325 325 325 324 323 322 321 323 322 322 322 322 321 321 319 320 319 318 318 316 316 315 315 315 316 316 315 316 314 314 316 317 316 316 315 315 315 311 313
309 307 303 303 305 305 303 297 296 296 298 295 296 296 294 294 297 300 300 297 301 306 309 312 315 317 318 319 319 319 319 320 319 318 319 319 319 318 316 318 319 319 320 319 320 321 321 321 323 324 325 327 327 327 327 327 327 325 324 325 324 324 323 323 321 322 323 322 322 322 321 320 319 320 319 319 317 317 316 315 315 315 316 316 315 315 314 313 312 312 315 313 312 310 311 311 309
310 308 303 301 300 300 305 298 296 296 298 295 299 294 296 297 300 298 300 298 299 301 308 310 312 315 317 318 318 319 319 318 318 319 320 320 320 319 317 318 318 319 320 320 320 320 322 323 323 324 323 325 326 327 326 324 325 325 324 324 323 323 323 323 321 321 322 322 322 321 321 320 319 319 319 318 317 317 316 316 316 316 315 315 315 314 314 312 313 313 315 312 315 313 312 312 309
303 306 302 300 296 297 301 298 294 296 296 295 302 295 298 302 302 299 297 298 299 299 301 309 311 313 315 316 317 317 318 319 319 320 321 321 322 321 318 318 318 319 319 320 319 321 321 322 323 323 322 323 324 326 325 324 323 324 323 323 323 322 322 322 322 322 321 322 322 322 322 321 320 319 319 319 318 317 317 316 316 317 316 315 314 314 314 314 313 313 311 313 315 312 313 312 311
301 301 299 297 299 298 301 298 296 297 297 295 299 292 297 302 301 299 299 298 299 299 299 302 309 311 313 315 317 317 318 319 320 320 321 321 322 322 321 318 318 318 320 320 320 321 321 322 322 322 321 322 323 324 325 325 322 322 322 321 322 322 321 321 322 322 321 321 321 322 322 322 320 320 319 319 318 318 317 317 317 317 316 315 315 314 314 314 313 313 312 314 312 313 312 312 310
303 300 297 298 298 298 298 300 295 302 295 294 297 291 291 295 299 300 299 299 298 299 299 299 303 308 311 313 316 317 317 317 318 320 321 322 322 323 323 320 318 318 320 321 320 320 321 321 321 321 321 321 322 323 323 323 322 321 321 321 322 322 321 321 321 321 321 320 320 321 322 322 321 320 320 319 319 318 318 318 318 318 317 316 316 315 314 315 314 314 312 312 313 313 310 311 311
299 301 297 298 297 296 297 298 297 297 296 292 293 294 298 298 299 297 296 298 296 297 298 299 300 303 307 310 313 315 316 316 316 319 321 322 323 324 324 322 320 318 319 320 321 321 321 321 321 321 322 322 322 323 322 322 322 321 320 321 320 322 321 321 321 321 321 321 320 321 322 322 321 320 320 320 320 320 319 319 318 318 317 317 316 315 315 315 314 314 313 312 312 313 311 311 310
296 297 296 297 298 299 299 298 299 295 295 296 293 292 296 300 301 299 297 296 297 297 298 298 300 301 302 305 309 312 315 315 317 319 321 322 323 324 324 324 323 319 319 320 320 321 321 321 321 320 321 321 322 322 322 321 321 320 319 320 319 321 321 321 321 320 321 321 321 321 321 322 321 321 320 320 320 320 319 319 318 318 318 318 317 315 315 314 314 313 313 314 312 314 313 312 313
299 299 298 299 296 296 298 302 301 298 294 294 293 292 293 296 297 300 300 295 296 297 297 297 298 300 302 303 304 307 311 315 318 319 320 322 323 324 324 325 325 323 319 319 319 320 321 321 320 320 320 321 321 321 321 320 320 319 319 317 317 318 320 319 320 321 321 321 321 321 321 321 322 321 321 321 321 320 320 320 319 318 318 318 317 316 315 315 314 314 314 314 313 313 313 314 314
300 300 299 299 299 299 301 302 301 299 295 294 294 293 294 296 296 298 300 297 294 294 295 297 297 298 301 302 303 303 306 311 316 317 319 321 322 324 324 325 324 324 321 319 319 319 320 321 320 319 320 321 321 320 320 320 319 318 319 319 319 319 319 320 320 320 320 321 321 321 321 321 322 322 321 321 321 320 321 320 320 319 319 319 318 318 317 317 317 316 316 314 314 313 313 312 311
299 299 298 298 299 298 301 300 300 299 297 295 294 293 294 296 297 298 298 296 297 297 296 296 297 297 298 301 303 303 305 307 309 312 315 318 320 322 323 324 322 322 322 320 319 319 320 321 320 320 320 320 321 321 321 320 320 320 319 319 320 320 319 318 320 320 321 321 321 321 322 322 322 322 321 322 321 321 321 321 320 320 319 319 319 319 318 315 317 316 315 313 312 315 314 313 313
300 298 297 296 298 300 299 298 300 299 297 297 292 292 294 296 297 299 297 296 299 300 300 299 298 297 298 298 301 304 303 305 307 312 314 317 319 321 322 323 323 324 324 321 320 319 320 320 320 320 321 320 321 321 321 321 321 321 320 319 320 319 320 321 322 321 321 321 322 322 322 322 322 322 323 322 323 322 322 322 321 321 320 319 318 318 318 317 318 317 316 317 313 308 314 311 313
299 298 296 294 298 297 294 298 295 296 295 290 294 292 294 297 298 297 297 295 297 299 299 299 299 299 299 299 300 302 303 305 306 310 312 315 318 320 321 322 322 323 323 323 321 319 320 320 320 320 320 321 321 321 320 322 321 321 320 319 320 320 318 319 320 319 320 320 321 322 322 322 322 322 323 323 323 323 323 322 322 322 321 320 320 319 318 318 318 318 317 316 316 313 310 313 313
299 299 297 296 296 298 299 296 294 294 295 292 291 291 291 294 294 296 297 295 296 298 296 297 297 299 301 302 301 301 303 305 306 308 311 313 316 319 320 322 323 322 323 323 322 321 321 320 320 321 321 320 321 321 320 321 320 318 318 314 314 316 315 316 317 318 319 320 320 321 322 322 322 322 323 323 322 323 323 323 323 322 322 321 320 320 319 319 319 319 319 317 316 317 313 311 311
297 299 299 299 299 299 298 296 293 291 291 293 293 285 290 293 295 296 298 295 295 297 296 297 298 297 298 298 300 300 301 305 307 308 310 313 316 318 320 321 321 322 322 323 324 323 322 321 321 321 321 321 321 321 321 321 319 319 318 317 316 316 317 316 316 318 319 319 320 322 322 322 322 322 323 323 323 321 323 323 323 323 322 321 321 321 321 320 319 319 319 319 318 318 318 313 311
295 296 302 301 300 299 299 294 293 288 289 292 295 289 288 286 291 295 296 296 296 298 297 298 299 299 299 299 300 300 300 302 305 308 310 311 314 316 319 320 321 322 323 324 324 324 323 322 321 321 321 320 321 321 321 320 320 319 319 319 319 318 317 318 320 320 321 321 321 320 321 322 323 322 322 323 323 322 322 323 323 322 322 322 320 321 321 320 321 320 320 319 319 318 317 314 313
294 302 302 302 300 299 298 296 293 293 293 293 294 294 289 289 293 293 295 294 295 297 297 297 299 300 301 301 300 300 301 301 304 307 308 310 313 316 317 320 321 322 324 324 324 324 324 323 322 321 321 320 321 321 320 320 320 319 319 319 319 319 318 319 319 320 321 320 320 320 321 321 322 323 323 323 323 323 321 322 322 322 322 322 320 320 321 321 321 321 319 320 320 319 318 317 315
298 301 303 301 301 300 299 295 291 292 289 288 290 292 287 287 289 290 292 292 293 295 297 298 300 301 301 301 300 300 301 301 302 305 307 309 311 315 317 319 322 323 323 323 324 324 325 325 323 322 322 321 321 321 320 320 320 320 319 319 318 318 319 319 318 318 319 319 319 320 320 321 321 322 323 323 323 323 321 321 322 322 322 321 319 320 320 321 321 320 319 318 319 319 319 318 317
300 303 302 299 298 296 297 292 291 290 288 286 290 290 286 289 287 291 289 292 294 295 297 299 301 302 303 302 301 299 299 300 300 303 306 308 310 314 317 319 320 322 323 323 324 324 324 324 323 323 322 322 322 321 320 320 320 319 319 319 318 318 317 318 315 317 318 318 318 319 319 320 320 321 322 322 323 323 323 321 321 322 322 321 318 320 320 320 320 320 320 320 319 319 319 318 318
303 303 299 296 293 291 290 289 288 288 285 287 293 290 290 287 289 293 291 293 297 296 297 299 301 302 303 303 303 303 301 300 300 300 302 305 309 312 315 317 318 320 321 322 322 323 323 323 323 323 323 324 323 322 321 320 320 320 320 319 319 318 318 317 316 317 317 317 318 319 319 320 320 320 321 321 322 323 323 322 321 322 322 321 319 319 320 320 321 321 321 320 320 320 320 320 318
302 296 295 296 292 291 289 286 287 285 283 290 293 289 290 284 290 292 298 293 297 297 298 299 299 300 300 301 303 305 304 301 300 300 301 301 301 304 308 313 316 318 319 320 321 322 322 323 323 322 323 324 324 323 322 321 321 320 320 320 320 319 319 318 317 317 318 318 318 319 319 319 319 320 320 321 322 323 323 323 322 322 322 322 322 321 321 321 322 322 322 322 322 322 322 320 320
299 296 297 291 285 288 284 286 283 283 284 286 289 290 288 288 293 288 294 294 294 298 300 301 301 300 299 299 300 302 303 303 302 301 301 301 301 301 303 309 313 315 317 319 320 321 322 322 322 322 322 323 324 324 323 322 322 321 321 321 321 320 320 320 319 319 319 319 319 319 318 319 319 319 320 320 321 321 323 323 324 324 324 324 324 324 324 324 324 324 324 324 323 323 322 322 321
297 294 292 289 284 282 282 284 285 286 288 285 285 292 290 294 295 293 294 295 298 298 299 300 297 298 298 298 298 299 299 301 302 302 301 301 301 301 302 306 311 314 316 318 319 319 321 322 322 322 322 323 323 323 323 322 322 323 322 322 322 321 320 321 321 320 320 320 320 319 319 320 320 321 322 322 322 322 322 323 323 325 326 326 325 325 325 325 325 324 324 324 324 324 324 322 322
297 299 296 291 289 285 282 284 281 283 284 284 285 286 285 289 291 289 296 300 299 298 299 299 298 297 296 295 293 292 294 296 299 300 300 300 301 301 302 304 307 311 315 317 318 319 320 321 321 320 321 321 322 322 322 322 323 323 323 323 323 322 322 321 322 322 321 320 320 320 320 320 320 321 321 322 321 323 323 323 323 323 324 325 326 326 325 325 325 325 324 324 324 325 323 322 322
298 297 299 293 289 288 285 284 280 277 280 282 284 286 287 290 291 293 293 293 293 293 295 295 296 295 293 293 293 294 294 297 298 299 299 299 300 300 301 302 304 307 311 315 317 318 319 320 320 321 321 321 321 321 322 323 323 323 323 322 323 322 320 321 321 321 321 321 321 320 320 320 321 321 320 320 321 322 323 323 323 323 323 324 325 326 326 325 325 325 324 324 324 324 324 323 323
295 297 291 293 298 292 285 284 282 282 281 280 284 285 291 292 296 299 297 291 293 293 294 294 294 294 292 294 295 294 294 294 295 297 299 300 298 298 300 301 302 304 307 312 315 317 318 319 319 319 319 319 319 320 321 322 323 322 322 323 322 321 321 320 321 321 320 320 320 320 320 321 320 320 319 318 320 320 322 322 322 323 323 324 324 324 325 326 325 324 324 324 323 323 321 322 322
298 291 294 295 298 295 291 285 283 280 281 283 285 284 286 285 287 293 297 296 295 294 294 294 295 293 293 295 295 296 296 296 294 295 297 298 299 299 299 300 301 303 305 308 312 315 318 319 318 318 318 318 318 319 320 321 321 321 322 322 322 322 322 321 321 321 319 318 318 319 317 318 318 318 319 318 318 319 320 316 322 322 322 323 323 323 324 325 325 324 324 324 324 324 322 321 320
298 296 301 294 286 285 286 286 278 280 280 281 281 284 283 286 290 287 287 294 297 295 294 294 293 292 294 295 294 294 294 292 292 293 294 296 297 298 298 299 300 300 302 306 310 312 314 315 316 318 317 318 318 319 319 320 320 321 322 321 321 322 322 322 321 320 318 318 318 317 317 319 318 316 315 317 317 318 318 319 321 322 322 322 323 323 324 324 324 323 323 323 323 323 322 321 322
297 299 297 297 295 288 287 287 286 288 282 280 280 279 282 288 290 292 292 290 294 297 291 294 295 294 293 292 294 294 294 294 294 293 294 296 297 297 298 298 299 299 299 301 304 306 309 312 312 313 314 313 312 314 315 317 318 320 320 318 319 321 320 321 320 318 318 318 318 317 317 316 317 315 316 316 317 317 317 318 319 320 321 321 322 323 323 323 323 323 323 322 321 321 320 319 316
290 294 291 292 290 292 294 292 287 285 283 282 282 280 284 287 291 294 297 297 294 295 294 294 295 294 293 294 295 294 294 295 295 295 295 295 294 294 294 294 295 295 295 295 300 305 308 308 309 310 312 310 311 314 314 317 317 317 316 316 317 317 317 316 314 315 317 317 318 315 317 317 313 315 314 314 314 315 316 317 318 318 320 321 321 322 322 323 322 321 321 321 319 319 319 319 319
295 294 292 294 290 288 286 284 290 284 287 278 282 282 287 283 291 296 297 299 299 296 295 295 295 295 294 293 292 293 294 294 295 295 294 295 294 293 292 293 293 293 294 296 298 299 300 303 307 306 306 308 310 310 311 314 311 313 313 314 313 308 312 312 313 313 314 316 315 314 313 309 311 312 311 313 314 314 314 316 317 318 318 319 321 322 321 322 320 318 318 320 319 318 318 318 316
Wind_Speed
7 6 5 4 1 2 2 4 1 3 2 2 2 1 2 0 1 2 1 2 3 3 1 3 4 3 2 3 10 7 1 2 1 5 3 1 2 8 9 10 8 7 7 5 3 5 6 8 10 11 14 15 15 14 13 13 13 13 11 13 16 15 15 14 14 14 15 15 15 15 15 16 16 16 17 17 17 18 18 19 19 18 18 18 18 18 17 17 17 18 17 17 17 16 16 16 16
4 6 4 3 1 3 1 1 3 3 5 3 2 1 1 1 3 3 3 3 1 2 1 6 10 14 14 12 10 4 3 3 2 1 1 2 6 6 9 11 10 10 6 4 5 5 4 6 10 12 15 15 14 14 12 13 14 13 12 12 15 15 16 15 15 15 15 15 15 15 15 15 15 16 16 18 18 18 18 18 18 17 18 17 17 18 17 17 16 17 18 17 16 16 16 17 17
4 6 6 4 4 4 0 3 2 0 2 2 2 2 1 3 4 3 4 6 7 6 7 9 9 7 4 2 5 2 1 2 3 2 3 5 10 6 9 10 9 8 8 5 6 5 4 6 10 12 15 14 13 13 13 13 13 13 13 13 14 15 15 16 16 15 15 15 15 15 15 15 15 15 16 17 18 18 18 18 17 17 17 17 17 17 17 17 16 16 16 16 16 16 17 17 18
2 1 1 3 3 4 1 3 3 1 1 3 2 2 3 6 4 5 3 5 6 7 3 2 4 1 4 8 3 4 3 1 0 4 5 7 6 7 9 10 9 6 5 6 6 4 4 7 10 12 14 14 13 12 13 14 14 13 13 13 14 14 15 15 15 15 15 15 15 15 16 15 15 16 16 17 18 18 18 17 16 17 16 16 16 16 16 16 16 15 15 15 15 15 15 16 17
4 2 1 2 2 2 1 0 1 1 1 2 2 2 3 4 7 5 4 4 3 3 4 3 4 3 2 5 0 1 4 1 4 3 3 2 8 9 8 9 8 7 6 6 6 5 4 9 10 11 15 14 13 13 13 13 13 13 13 13 13 14 15 15 15 15 15 15 15 15 15 15 16 16 16 17 18 17 17 17 17 16 16 16 16 15 15 15 15 15 14 14 14 14 14 15 16
3 3 2 1 1 3 5 1 2 2 7 4 2 3 5 5 9 5 3 0 1 2 6 4 4 3 3 2 1 3 5 5 3 1 4 6 11 11 10 9 8 7 6 6 6 5 5 10 10 11 15 15 14 13 12 13 13 13 12 12 13 14 15 15 14 14 14 15 15 15 15 15 16 16 17 17 18 17 16 16 16 16 15 15 15 15 14 14 14 14 14 13 13 13 14 14 16
4 4 3 4 1 3 3 1 2 4 8 6 5 5 8 6 5 7 3 3 2 4 2 4 7 5 5 1 2 1 2 2 4 3 5 9 10 10 10 9 8 7 6 6 6 6 6 10 10 11 12 14 14 12 12 13 14 14 13 12 13 13 14 14 15 15 15 15 15 15 14 14 16 15 16 16 16 16 16 16 16 15 15 14 14 14 14 14 14 14 13 13 13 13 13 14 14
0 2 2 3 2 2 0 1 3 4 3 5 3 9 6 6 5 5 5 3 2 2 2 5 3 6 1 2 2 2 4 1 4 7 11 11 10 10 9 9 9 8 7 6 5 5 8 9 8 9 11 12 13 12 13 12 11 12 13 12 13 13 13 14 15 15 15 16 16 15 14 15 15 15 15 15 16 15 15 15 15 14 14 14 14 14 14 14 13 13 13 12 12 12 12 13 14
4 1 1 3 1 1 1 2 4 3 5 1 2 4 6 7 6 6 5 1 1 2 5 4 4 6 2 3 1 3 2 2 6 11 13 12 11 10 9 9 9 8 8 6 5 5 6 8 9 9 11 11 12 12 12 13 12 12 12 12 12 13 13 14 14 14 15 15 15 15 15 14 14 14 14 14 15 14 14 15 15 14 13 13 13 13 13 13 13 13 12 11 11 11 12 12 13
2 2 1 1 2 3 3 4 1 1 2 3 7 7 5 4 3 4 6 3 4 5 3 3 2 4 4 5 0 1 1 3 10 10 11 12 11 10 10 10 10 10 8 6 5 5 5 11 10 9 10 10 10 11 12 13 13 12 12 12 12 13 13 14 13 14 14 14 14 14 14 14 14 15 15 15 14 14 15 15 14 14 14 13 13 12 12 12 12 12 12 11 11 11 11 11 11
3 4 2 1 2 1 3 5 2 6 3 3 2 3 7 5 6 5 5 5 1 5 2 4 5 7 4 1 2 3 0 5 12 12 10 11 10 11 9 9 10 11 8 7 5 5 6 6 10 9 8 9 10 10 10 10 13 13 12 12 12 12 12 13 14 13 14 14 13 13 13 13 13 14 15 15 14 15 14 14 14 14 13 13 12 12 12 12 11 11 11 11 10 10 10 10 10
2 2 3 1 1 3 4 2 4 6 5 2 3 4 2 5 4 4 2 5 2 2 5 5 5 5 4 1 1 0 2 5 9 9 7 7 9 11 10 7 9 9 10 7 5 4 5 6 6 8 9 8 8 9 9 11 11 12 12 13 12 11 12 11 11 12 12 12 12 13 13 10 10 12 13 12 12 12 14 14 14 14 13 13 12 12 11 11 11 10 10 10 9 9 9 9 10
1 0 3 2 3 1 2 1 4 2 4 2 3 4 4 4 7 8 6 5 4 4 2 4 11 3 3 1 1 0 3 7 5 6 6 6 8 8 8 8 9 9 8 7 7 5 5 5 6 6 7 9 9 9 8 9 10 10 11 12 10 8 8 8 9 11 12 11 11 11 11 10 10 10 11 10 10 12 13 12 13 14 13 12 11 11 11 11 10 9 9 9 8 8 8 9 9
1 2 3 3 0 1 1 2 1 2 4 3 2 1 4 3 4 8 7 6 3 7 2 7 9 6 3 3 2 5 7 6 6 5 5 6 7 8 8 7 7 8 7 7 7 6 5 5 5 5 6 6 5 7 8 7 9 9 8 10 11 10 10 10 9 9 9 8 9 9 9 10 10 10 9 9 10 10 10 10 11 13 12 11 11 11 10 10 10 9 8 7 7 7 7 7 7
1 2 1 1 2 1 2 2 2 1 5 3 3 3 2 1 4 4 11 6 7 1 1 3 4 6 5 9 4 11 11 10 8 5 6 7 8 8 8 7 7 7 7 7 7 7 6 6 6 5 5 5 5 5 3 5 8 9 10 11 11 11 10 10 10 9 8 8 8 8 9 10 10 9 8 8 8 9 8 8 9 10 11 11 10 10 9 9 8 8 7 6 6 5 5 5 5
3 5 2 0 3 3 5 2 1 1 6 3 4 5 1 1 1 7 3 7 3 1 1 2 0 1 6 12 8 16 12 10 7 6 8 8 7 7 8 7 7 7 7 6 6 6 7 7 6 6 6 5 4 4 4 4 8 10 10 10 10 10 10 10 11 10 9 9 8 9 9 9 8 8 9 6 7 8 8 7 8 8 9 10 9 9 8 7 7 7 6 5 3 3 2 3 4
1 3 0 1 7 3 4 3 4 1 3 3 3 1 5 2 0 0 0 1 9 0 4 1 0 2 12 7 3 14 12 9 8 8 9 7 8 7 7 6 6 5 5 7 7 6 7 8 7 6 6 6 6 5 5 5 6 9 9 11 11 11 9 10 10 11 10 9 8 8 8 6 5 5 6 5 6 5 8 8 9 8 7 8 8 8 6 6 6 6 4 4 3 1 2 3 4
1 3 4 5 4 5 4 4 3 1 1 3 3 4 5 3 0 1 3 7 4 2 4 2 4 5 1 1 10 16 15 14 11 13 11 9 8 8 8 7 7 8 7 7 7 8 7 8 9 8 7 7 7 6 4 4 5 6 6 6 6 8 8 7 7 6 6 5 8 7 5 5 5 4 5 6 4 5 6 8 8 8 8 7 7 7 6 5 5 5 5 3 2 1 1 1 3
3 1 4 10 5 4 3 2 2 1 4 4 5 4 6 6 6 3 4 1 3 4 2 3 4 5 6 7 12 16 14 12 12 12 14 14 11 13 11 9 9 8 8 7 7 9 8 7 8 8 8 8 8 6 5 6 7 6 6 6 5 7 7 7 6 6 5 6 5 4 4 4 4 5 5 5 4 6 5 7 7 7 7 7 6 6 5 4 4 4 4 3 2 1 1 2 2
3 4 6 7 4 2 4 3 5 3 3 5 4 4 4 3 4 2 3 6 2 9 6 1 2 3 5 7 11 14 14 14 12 13 14 14 12 13 12 11 10 11 10 9 9 7 9 8 9 9 9 9 8 7 6 7 7 7 6 6 6 6 6 6 5 6 5 6 6 5 5 4 4 4 6 11 8 5 4 5 5 5 4 5 5 4 4 3 2 2 1 2 2 1 1 2 2
2 3 6 5 4 3 5 4 5 4 4 2 4 1 2 2 3 3 5 7 4 4 7 12 10 10 9 11 13 13 14 13 11 11 12 13 11 10 12 13 13 12 10 7 7 9 9 10 9 9 9 9 8 7 7 7 8 6 5 6 7 7 6 6 5 6 6 6 5 5 5 5 5 4 4 5 4 5 4 3 3 3 2 2 2 1 1 1 1 1 1 1 0 1 1 2 2
2 9 8 4 1 3 6 7 3 2 3 3 1 5 4 1 0 3 12 10 8 11 12 8 12 14 15 14 13 12 14 15 14 14 15 15 16 13 9 7 4 5 6 9 10 10 10 10 10 8 8 8 8 8 8 7 8 7 7 6 6 7 8 7 6 6 6 6 6 6 6 6 6 5 5 5 5 6 5 5 4 4 3 4 3 3 2 2 2 2 2 2 2 2 3 2 2
3 5 4 5 5 4 1 1 3 2 1 1 2 2 2 5 2 4 9 10 6 3 4 9 9 17 17 16 15 13 14 16 16 17 16 15 14 13 12 11 11 10 8 10 9 8 10 10 10 10 9 9 9 8 7 7 7 7 7 7 7 7 7 7 7 7 7 7 7 7 7 6 7 6 6 7 7 6 6 5 5 4 4 4 4 3 3 3 4 3 3 3 2 1 3 3 3
5 8 2 7 6 9 7 6 0 1 4 2 2 1 3 4 4 2 5 7 5 3 7 10 8 9 10 12 14 18 18 17 18 18 18 19 18 18 15 14 11 8 8 10 10 9 10 12 11 11 10 10 9 9 8 8 8 8 8 8 8 8 7 7 7 7 7 7 7 7 7 6 7 6 6 6 6 5 6 5 5 5 4 4 4 3 4 4 4 3 3 3 3 3 3 4 5
7 8 3 3 4 7 8 8 5 2 4 1 3 1 4 6 4 1 6 10 6 3 3 7 10 11 11 14 15 14 14 14 15 14 10 9 11 11 8 8 9 10 11 10 9 9 11 12 12 12 11 12 10 10 9 8 8 8 8 8 8 7 7 7 7 6 7 6 6 7 6 7 6 7 7 7 5 6 6 6 5 5 5 5 4 4 4 5 5 4 4 5 4 4 4 4 3
5 12 3 2 4 4 7 5 5 6 2 1 2 4 4 6 2 3 8 7 6 2 6 10 12 12 14 15 16 15 15 16 14 13 15 11 9 10 10 10 10 12 13 12 11 10 9 11 12 13 12 12 11 10 9 9 9 9 8 8 8 7 7 7 6 7 7 6 6 7 7 7 7 8 7 6 6 6 6 5 5 6 6 5 5 6 6 5 5 5 5 5 5 5 5 6 3
6 10 8 7 7 6 1 7 6 6 4 4 5 5 5 1 3 9 4 7 3 3 5 10 14 14 14 13 13 13 15 16 17 14 8 8 9 12 13 11 12 14 12 12 11 10 9 10 11 12 11 11 10 11 9 10 9 9 9 8 8 8 8 7 7 7 7 7 7 7 7 7 8 7 7 7 6 6 6 6 6 6 6 6 6 7 6 6 6 7 7 6 6 6 6 4 4
4 5 4 7 9 7 4 4 6 2 3 5 5 6 4 3 0 12 3 3 6 6 6 9 12 12 13 13 13 12 12 13 10 9 15 14 13 13 14 14 15 13 13 14 12 9 9 11 12 12 12 11 11 11 10 9 9 9 8 8 8 8 8 7 7 8 8 7 6 7 7 7 7 7 7 6 7 6 6 6 6 6 7 6 6 7 7 6 7 7 6 6 5 5 5 4 4
4 5 9 6 8 10 6 7 5 5 5 5 4 1 4 3 15 7 5 3 5 7 8 10 11 11 12 11 10 9 13 11 9 11 15 15 13 12 16 15 14 14 11 13 13 11 13 12 12 12 11 11 12 12 10 9 8 8 9 9 8 8 8 7 7 8 8 7 6 7 7 7 7 7 7 7 6 6 6 6 6 6 7 6 6 6 5 5 5 5 6 4 4 3 4 5 3
2 4 4 5 5 7 11 4 2 7 4 9 5 8 8 13 17 3 7 5 4 5 6 8 9 9 10 10 11 11 9 8 11 15 14 13 13 13 15 14 14 13 11 10 11 14 12 9 10 9 11 12 12 10 9 8 8 8 8 8 8 8 8 8 8 7 7 7 7 6 7 7 7 6 7 6 6 6 6 6 7 6 6 5 5 5 6 5 6 5 6 4 5 6 6 6 6
5 5 1 8 6 8 5 6 5 9 2 9 6 10 10 12 6 5 6 7 8 8 8 9 9 9 9 10 11 12 13 13 16 16 14 13 12 11 13 11 13 13 10 11 15 16 13 12 10 9 11 11 11 11 11 10 8 8 7 7 8 8 8 8 8 7 7 7 7 7 7 7 7 6 6 7 7 6 7 7 7 7 6 5 5 5 5 5 5 6 4 5 5 6 5 6 6
3 4 13 4 10 1 4 6 11 12 1 5 6 8 12 14 7 6 8 7 8 11 9 11 11 10 10 10 11 11 13 13 12 12 13 13 12 12 13 14 13 13 14 14 13 12 14 12 12 11 11 12 12 12 10 10 9 8 7 7 7 7 7 7 7 8 7 6 6 6 7 7 7 7 7 6 7 7 7 7 8 7 6 5 6 5 5 6 6 5 5 5 5 6 5 6 4
4 10 5 9 7 6 1 5 7 13 4 2 10 6 3 8 7 8 7 11 12 12 10 10 12 12 11 10 11 11 10 9 10 12 14 13 13 12 13 13 13 15 13 12 13 12 13 13 13 14 14 14 13 12 11 8 8 7 7 7 7 7 7 7 6 6 6 6 6 7 7 8 7 8 8 7 7 8 7 7 7 7 6 6 6 6 6 6 6 6 5 5 4 6 6 6 5
11 7 8 2 8 3 9 3 5 6 7 6 5 7 12 6 2 1 1 4 6 9 11 9 9 10 11 10 11 12 12 12 14 14 16 15 13 15 13 13 13 13 12 13 13 15 15 13 13 13 12 12 12 12 11 10 8 7 6 7 6 8 8 7 7 7 7 6 6 7 7 8 8 8 8 8 8 8 8 8 7 7 6 6 6 6 7 5 5 6 6 5 6 5 6 6 6
12 8 7 5 2 8 8 6 4 6 6 10 9 11 16 14 10 6 2 0 7 11 11 8 9 9 10 10 11 12 12 13 15 14 15 15 15 14 13 12 11 11 11 12 12 12 11 12 11 12 12 12 11 11 10 9 7 6 5 6 6 7 6 7 7 7 7 7 7 7 7 7 8 8 8 8 8 8 7 7 7 7 6 6 6 6 6 6 6 5 6 7 5 6 6 5 6
10 12 6 4 6 7 11 9 3 16 10 11 11 13 16 16 13 9 7 4 7 10 8 6 8 10 11 12 12 11 12 15 13 11 12 12 13 13 13 12 11 10 10 11 12 11 12 12 10 11 11 11 10 9 9 9 8 8 8 5 6 7 6 7 6 7 6 7 7 7 7 7 7 8 8 8 8 8 7 8 8 7 7 7 8 8 8 7 9 8 8 8 7 6 5 4 5
3 5 8 11 11 8 6 8 4 5 5 12 11 10 16 16 14 13 13 5 3 5 7 9 8 9 10 11 11 12 13 16 11 12 11 13 14 12 12 11 11 10 10 11 12 13 14 14 12 14 12 10 10 10 10 11 11 9 8 11 11 7 8 7 7 7 7 7 8 9 9 8 7 8 8 8 9 8 8 7 8 8 7 8 8 9 9 9 9 8 8 6 8 6 5 5 4
2 7 8 10 11 13 7 8 5 7 9 6 9 11 18 18 14 13 9 5 9 10 9 9 10 9 8 10 12 12 13 6 5 5 8 8 9 10 10 10 10 13 13 13 15 16 14 13 15 14 11 12 12 13 11 11 11 12 11 10 8 8 8 8 9 8 9 8 9 10 10 9 10 9 9 9 9 9 9 9 9 9 8 9 9 8 9 8 8 7 6 5 5 8 6 6 6
6 5 7 8 11 7 3 6 5 6 7 12 5 12 16 18 16 15 10 9 10 11 11 12 11 10 10 10 12 13 9 10 7 10 10 11 12 13 12 12 13 16 15 15 15 13 14 14 14 13 12 13 12 12 12 13 10 9 9 6 9 7 7 8 8 8 8 9 10 11 10 10 11 10 10 10 10 10 10 10 10 9 9 9 9 9 9 10 9 10 9 9 5 4 5 3 6
10 7 7 12 7 8 8 8 3 4 8 2 9 12 12 15 14 13 9 8 7 11 11 11 9 12 13 15 14 13 14 13 13 13 13 12 12 13 12 13 14 12 12 13 13 15 14 14 14 14 14 13 12 13 13 11 10 8 6 5 6 7 6 6 7 6 7 9 11 10 11 11 11 11 11 11 11 11 11 11 10 9 10 9 10 10 10 11 10 9 9 9 7 6 4 7 6
12 12 8 7 6 11 10 4 3 0 4 2 1 5 8 11 13 11 8 8 9 12 7 9 9 10 13 12 10 13 16 15 14 13 11 10 11 13 15 15 13 14 15 15 15 15 13 17 17 16 14 14 13 13 13 9 7 6 5 3 3 4 1 5 6 8 10 11 10 11 14 11 12 12 12 13 12 13 12 11 11 10 10 9 9 10 10 12 11 11 11 10 10 10 8 5 5
13 15 14 7 3 1 5 3 3 2 6 6 5 4 15 7 14 18 11 4 9 10 10 13 13 12 12 12 14 11 11 11 16 17 16 15 15 15 14 14 14 15 14 14 15 16 15 14 14 14 12 12 13 13 13 11 10 11 9 9 9 9 11 9 13 15 13 13 15 13 9 11 12 12 12 12 12 11 12 12 11 10 10 9 9 10 10 8 10 10 11 11 11 10 9 6 5
11 15 16 8 6 4 2 2 5 7 13 4 6 10 13 2 12 13 12 13 14 10 11 15 14 13 14 14 14 14 14 13 11 11 12 13 14 13 14 15 16 16 16 15 13 14 15 14 14 15 14 12 12 11 12 11 11 11 14 15 14 14 14 13 11 10 11 12 9 9 11 10 11 12 12 12 12 12 11 11 11 11 10 9 9 9 9 10 9 10 8 9 10 9 7 8 9
15 7 9 10 11 10 6 4 8 8 2 2 7 11 14 11 12 5 8 12 12 15 12 12 14 16 17 15 15 15 15 12 12 13 13 13 15 16 18 18 16 18 17 13 13 13 15 17 15 15 13 12 11 11 13 14 13 13 14 14 13 13 14 14 12 12 9 7 9 11 9 9 10 11 12 12 12 11 11 11 11 11 11 10 9 10 10 9 8 7 8 9 8 8 10 11 9
5 7 10 14 14 8 3 4 5 3 1 7 7 1 5 13 6 1 5 6 8 15 13 12 15 18 20 17 14 14 15 13 12 12 14 14 15 15 15 15 17 17 13 14 15 15 15 14 13 12 13 12 11 13 14 15 14 14 14 13 13 13 13 11 7 7 8 8 10 9 10 10 10 11 12 12 11 12 11 12 11 11 11 10 9 9 9 9 10 9 8 8 10 9 9 10 8
5 9 7 5 9 6 2 1 3 4 2 13 12 9 10 20 5 7 3 8 14 12 13 15 18 21 20 15 12 12 11 11 11 14 15 15 15 15 16 17 16 15 14 14 13 11 11 11 12 13 15 13 12 13 14 15 15 13 13 14 16 14 11 9 6 9 9 7 11 11 10 10 10 9 10 11 11 11 11 11 11 11 11 10 9 10 9 9 10 10 10 10 10 10 8 9 11
8 10 10 6 6 2 2 4 1 1 10 17 15 9 11 17 8 12 11 16 14 7 7 8 15 17 15 12 12 12 12 12 11 12 12 13 14 15 15 15 15 13 11 12 12 12 12 12 13 14 16 13 13 14 15 16 15 14 15 16 17 17 14 11 10 11 9 8 11 12 11 10 9 10 9 10 12 11 11 10 11 11 9 9 9 9 10 10 10 9 9 9 10 12 10 10 10
14 4 7 9 1 4 3 2 2 5 10 18 10 12 8 13 15 9 14 2 12 14 12 14 16 18 15 12 13 14 11 10 11 12 13 13 10 10 8 10 11 12 12 13 13 12 12 13 13 15 14 14 14 15 15 15 14 15 15 15 16 17 13 12 14 15 13 13 12 11 9 7 9 8 9 9 10 10 10 10 10 9 10 10 10 9 9 9 9 8 9 9 10 12 12 11 11
9 9 12 13 4 5 9 3 8 8 13 2 10 13 5 17 21 3 8 7 4 11 14 17 18 14 10 11 12 10 9 9 12 13 13 12 13 13 11 12 11 11 13 14 14 13 13 13 15 16 17 16 15 14 15 16 14 15 16 17 16 14 13 14 14 14 11 12 11 10 9 10 8 9 10 10 10 9 10 10 10 10 11 11 11 10 11 11 10 10 11 11 11 12 11 12 11
12 14 13 14 8 9 11 10 1 4 9 2 3 14 16 16 12 7 7 9 10 10 13 12 8 10 10 8 8 7 8 10 12 12 12 12 12 12 13 14 14 14 14 14 13 13 12 13 15 17 18 16 14 13 15 15 17 17 16 16 15 12 13 14 13 13 12 11 10 11 11 10 10 12 10 11 9 9 10 10 11 11 11 11 11 12 12 11 11 11 11 11 12 11 10 12 13
18 13 18 16 14 8 17 12 18 13 7 2 2 4 7 16 8 4 5 7 9 10 10 10 8 8 7 5 3 5 5 7 8 9 11 12 13 13 13 14 14 14 14 14 13 14 13 14 15 17 16 14 13 14 14 16 16 16 15 15 14 12 13 12 12 12 11 12 10 10 10 9 10 9 9 8 8 10 11 11 11 12 11 11 11 11 11 11 11 11 10 11 10 9 9 10 10
7 4 1 10 14 3 4 1 3 3 3 4 3 8 3 8 3 7 4 7 9 4 8 9 10 7 6 6 6 7 8 9 9 10 11 12 13 12 12 12 13 12 13 13 14 13 14 15 15 17 18 15 15 16 15 16 16 14 14 14 15 14 11 10 11 11 11 10 10 10 10 9 9 8 7 7 8 10 11 11 12 13 12 12 12 12 12 11 11 11 10 10 12 9 12 14 14
11 9 14 10 3 8 6 3 0 4 4 6 2 7 12 6 14 15 9 4 9 5 9 8 10 6 5 7 8 6 7 7 7 10 11 12 10 8 10 11 11 11 10 12 14 14 16 15 14 14 14 12 13 14 15 15 15 12 14 15 14 12 14 14 14 13 11 9 8 9 9 9 8 8 7 8 9 9 10 10 11 12 12 12 12 12 12 12 11 11 10 10 11 9 10 11 10
10 15 10 5 6 4 5 7 1 2 6 5 8 14 10 2 14 3 12 12 11 9 11 12 10 6 7 11 9 8 9 9 6 5 7 8 9 11 11 10 11 13 13 13 14 13 14 15 15 16 14 15 14 14 15 14 14 14 15 14 14 15 14 14 13 11 8 8 8 8 6 8 9 8 9 7 8 9 10 11 10 11 11 12 12 12 11 12 12 10 10 12 11 10 11 9 8
12 12 13 14 7 9 1 3 5 6 4 4 4 10 8 11 17 1 2 14 16 10 10 8 10 10 13 12 9 8 7 6 6 7 8 9 9 10 11 12 11 10 10 11 12 11 10 10 11 13 16 17 17 15 14 12 12 11 12 13 13 13 12 12 10 8 6 9 10 8 9 10 8 7 8 8 8 8 8 9 10 10 10 11 11 11 11 11 11 11 10 10 10 10 10 10 11
3 4 10 0 2 4 12 7 2 5 8 3 5 4 10 12 12 7 9 6 12 14 4 12 13 12 11 9 9 10 9 9 8 8 9 9 9 9 10 11 11 11 10 9 8 6 8 10 10 11 10 8 7 9 9 11 12 13 12 9 9 11 11 10 8 8 8 10 10 9 10 9 10 7 8 7 8 8 8 9 9 9 10 10 10 11 11 10 10 11 11 10 9 9 9 9 6
5 6 6 4 3 2 0 2 6 5 3 7 7 9 9 9 8 13 19 16 12 13 12 8 8 7 9 10 11 9 9 9 10 10 10 9 7 5 5 5 5 2 3 4 6 10 11 9 10 11 13 11 10 12 11 13 11 11 10 11 11 8 8 6 6 7 9 10 10 10 10 8 5 7 6 7 8 8 8 9 9 9 10 10 10 10 10 10 10 10 10 9 6 6 8 8 10
19 16 17 19 16 13 15 12 1 4 9 6 8 17 10 4 7 16 19 18 18 13 14 13 9 9 9 9 8 8 8 10 10 10 8 7 6 5 4 2 1 4 5 7 8 6 6 9 11 9 8 9 11 10 11 12 8 8 9 9 7 5 6 6 7 8 10 10 8 7 6 5 6 7 7 8 8 8 8 8 9 9 9 9 9 10 10 10 11 8 6 7 8 9 11 13 11
Wind_Direction
334 336 317 314 67 102 61 359 80 313 46 263 326 310 217 20 202 63 27 337 44 308 291 357 23 55 118 169 131 127 68 138 215 135 214 227 106 127 132 129 131 132 140 143 152 127 126 132 137 134 125 120 120 122 125 126 120 116 115 116 110 110 113 114 107 104 102 101 98 99 101 100 99 99 100 99 97 96 93 91 88 85 84 83 81 78 77 75 77 82 82 78 72 66 59 54 54
325 326 307 338 33 71 311 98 98 349 40 15 258 124 229 318 55 154 144 120 195 116 19 83 76 84 92 113 129 124 45 22 209 176 34 102 110 117 138 137 142 142 143 144 128 126 132 133 131 130 130 127 126 126 131 124 119 118 121 119 116 118 117 114 112 110 107 102 102 102 101 97 97 100 102 101 98 96 94 91 88 87 85 83 80 78 76 74 75 80 80 75 69 63 58 56 59
330 342 346 17 27 64 31 40 324 54 44 347 278 224 313 76 142 225 195 138 148 134 119 99 98 79 95 107 33 45 248 332 60 48 103 146 120 169 146 140 141 140 140 138 125 128 130 134 136 139 134 130 128 132 130 123 123 125 126 122 119 116 115 114 115 110 106 106 105 102 101 98 100 101 103 103 99 95 93 91 90 88 86 83 82 80 78 76 76 79 77 75 68 62 59 59 64
299 3 58 49 337 26 59 24 101 125 275 216 298 282 211 152 185 191 204 174 169 154 155 41 54 290 103 60 119 85 73 137 14 142 137 173 160 153 146 140 138 132 129 131 128 133 137 140 138 143 138 132 131 134 130 130 131 129 121 120 118 115 116 114 113 113 111 109 106 105 101 99 102 105 105 102 100 97 94 91 90 89 87 85 85 82 81 80 81 83 80 77 72 68 66 65 68
347 322 68 96 101 4 89 198 125 94 274 208 199 276 261 177 165 169 204 215 222 113 92 124 77 359 75 118 143 128 204 103 151 141 122 128 136 147 145 139 134 133 135 135 131 137 143 140 144 147 140 136 136 138 138 135 128 126 123 116 122 122 119 117 116 112 110 109 103 102 103 102 103 104 105 103 100 100 101 99 94 91 90 89 88 88 86 84 85 87 86 81 77 72 69 67 70
350 33 357 78 322 180 49 19 335 298 234 152 141 226 221 205 156 176 161 254 338 73 126 75 144 167 27 333 175 126 148 145 191 121 129 162 150 146 147 141 134 136 139 135 134 140 145 146 152 150 144 140 138 140 135 134 137 129 121 126 129 128 125 122 117 109 110 108 108 108 106 104 103 101 102 103 102 102 99 98 99 96 91 90 90 91 90 90 91 94 92 85 79 75 70 67 69
318 19 355 23 0 49 163 155 239 229 282 172 198 188 195 215 183 128 144 104 341 68 341 127 114 90 73 301 16 31 315 190 112 173 139 158 144 145 147 142 137 139 140 142 138 144 153 157 161 157 147 141 140 141 140 139 136 132 130 132 131 127 122 120 119 115 113 113 113 111 108 108 106 108 103 101 101 103 104 103 97 94 92 92 95 95 95 95 94 94 92 86 80 76 71 68 66
319 46 309 87 276 37 349 217 255 153 277 182 222 167 199 200 176 138 164 103 197 111 48 124 129 95 261 35 158 270 340 251 144 114 128 144 145 149 146 145 139 145 145 147 148 150 159 161 159 150 143 139 142 146 144 139 132 133 131 130 131 128 129 127 126 123 121 120 120 117 113 113 109 108 107 107 109 110 108 103 100 99 100 100 98 97 97 98 96 96 94 89 82 77 73 70 68
346 46 23 69 351 22 37 278 262 232 277 315 155 271 189 184 178 141 143 221 79 113 121 137 166 96 223 47 74 277 322 97 109 125 137 145 148 152 147 147 144 149 148 152 155 157 153 159 147 142 138 145 147 149 146 139 136 136 137 136 136 133 134 133 129 126 125 127 125 123 122 122 122 118 116 115 114 114 112 111 108 104 103 103 101 99 99 98 98 98 97 93 87 81 75 72 70
352 57 302 146 129 309 332 296 10 231 218 229 180 187 182 193 177 140 143 120 169 138 160 122 108 116 130 108 340 323 190 138 122 124 144 149 146 148 146 148 148 149 150 152 160 152 152 153 148 149 149 149 148 148 146 144 143 143 142 139 139 138 137 137 133 131 131 131 127 126 127 128 126 127 123 123 123 122 119 118 116 115 112 110 108 106 103 101 100 99 98 96 92 86 80 76 73
314 8 140 46 17 312 265 280 269 317 304 320 282 225 190 171 148 153 159 158 200 141 174 120 46 119 109 139 224 260 129 146 135 152 158 151 136 143 143 149 149 149 151 153 155 152 150 150 147 146 145 144 144 144 140 143 147 147 144 141 141 140 141 140 137 135 135 134 129 128 128 130 132 130 129 128 127 127 127 121 120 118 115 114 113 110 107 103 101 100 98 97 95 91 84 79 76
338 6 6 111 214 183 240 229 287 287 297 358 238 201 218 169 132 121 128 138 219 135 170 137 179 142 69 89 296 331 113 164 151 151 158 139 126 141 141 144 147 150 151 150 144 143 145 148 141 141 137 142 143 143 146 145 147 148 146 145 140 143 143 144 140 138 131 128 129 129 123 110 114 125 127 127 130 131 128 127 128 122 120 118 116 115 111 107 102 98 95 94 92 91 86 78 70
105 118 74 98 240 159 233 325 257 283 336 281 194 225 126 156 170 166 172 156 161 126 206 228 136 84 109 168 276 326 170 194 167 150 146 123 132 137 135 141 150 147 149 143 140 144 141 140 142 138 139 137 138 142 151 150 145 145 147 143 143 136 136 129 122 129 133 134 130 123 122 107 102 101 111 115 118 122 126 128 126 123 123 123 119 117 115 112 107 100 95 91 88 85 81 72 66
121 177 120 262 86 209 218 244 321 326 294 252 227 246 166 184 220 167 133 127 202 160 234 155 133 119 77 91 164 211 209 198 181 149 129 122 130 134 137 141 147 147 150 147 145 147 142 142 138 139 138 139 146 145 150 148 146 145 130 127 126 124 122 120 121 128 128 118 113 114 115 109 103 98 99 102 108 111 115 119 122 124 125 126 124 119 118 115 113 108 100 93 87 76 69 67 58
150 154 84 122 299 33 243 179 189 141 269 213 253 138 225 277 139 162 151 142 210 221 65 61 164 127 213 163 213 204 194 190 173 141 127 122 129 134 138 142 147 149 154 154 150 147 150 143 143 145 143 143 148 149 143 140 135 130 128 130 128 126 123 123 121 115 113 112 115 114 113 108 104 100 98 99 100 102 104 104 114 121 127 128 126 123 121 118 116 116 110 99 85 74 60 51 42
158 90 90 218 259 202 266 186 210 104 264 218 267 135 98 348 118 147 245 151 183 30 138 148 57 222 162 172 203 188 170 170 155 130 124 124 125 132 137 146 150 160 163 160 160 160 152 148 151 151 148 147 151 151 146 140 135 132 134 132 130 128 130 130 128 125 122 119 120 116 112 107 102 100 98 85 98 104 105 108 106 116 127 132 131 131 123 124 125 123 124 118 115 101 75 37 16
62 81 143 61 262 171 255 174 144 207 249 279 287 231 169 201 240 299 295 318 128 254 55 17 328 5 166 196 183 140 153 147 122 127 126 130 136 141 142 151 156 170 171 175 169 171 161 155 158 154 157 154 154 154 150 144 147 138 139 139 137 133 133 136 135 133 131 132 129 128 121 114 118 116 111 113 101 110 121 117 117 117 121 133 139 139 135 138 139 137 142 147 139 119 24 9 12
94 167 145 239 202 214 218 193 190 192 236 268 225 223 141 168 168 179 71 26 62 55 63 349 23 23 301 331 139 141 149 148 146 142 155 153 151 153 161 171 167 180 179 182 184 173 168 166 164 162 162 162 159 156 155 148 143 142 139 142 138 134 136 135 137 145 145 147 145 143 136 133 133 130 129 128 121 124 126 127 128 129 134 136 148 152 152 160 163 157 160 167 182 189 356 15 1
175 146 143 231 180 236 179 215 238 45 274 233 234 184 175 204 141 208 112 186 130 80 2 17 50 12 53 100 126 138 149 151 153 159 163 165 167 168 171 172 179 171 187 186 192 181 177 171 169 169 169 168 162 161 159 157 154 151 151 148 144 147 149 151 154 156 157 158 159 150 143 139 140 144 143 146 129 129 132 134 133 137 139 146 153 158 164 172 175 163 162 188 211 324 18 350 350
236 137 216 231 195 246 261 258 267 203 241 259 208 238 165 217 149 150 155 166 190 161 155 337 147 141 130 128 138 146 156 161 165 163 172 175 177 172 170 176 182 186 185 186 183 186 179 179 179 175 174 171 165 168 162 165 163 160 160 159 155 159 160 163 166 165 169 172 158 154 149 141 145 146 153 150 139 130 121 113 114 120 135 154 162 161 175 205 195 59 26 67 28 344 332 315 328
250 165 218 224 198 227 264 258 263 243 175 198 182 51 164 244 209 145 145 121 246 253 216 166 192 168 160 158 154 155 160 165 172 175 176 180 186 185 185 183 182 183 181 172 180 191 188 182 181 182 177 174 171 169 168 172 171 169 167 166 168 169 169 173 176 174 177 181 164 162 157 150 146 147 157 155 158 149 150 150 150 163 160 194 186 203 267 293 334 291 313 87 178 260 282 283 282
125 216 224 180 121 179 247 247 236 247 236 138 158 138 223 93 11 162 156 174 202 208 210 218 170 162 156 164 170 163 167 172 179 180 185 184 185 188 190 197 181 164 160 183 192 188 192 187 184 183 178 180 180 173 175 174 171 176 177 175 171 176 174 179 183 183 184 184 172 173 155 157 159 162 166 172 167 168 168 174 184 187 188 200 200 222 254 210 251 250 255 266 192 202 226 230 208
230 265 247 219 220 215 245 248 231 214 61 114 134 213 103 160 220 203 186 196 224 212 175 188 170 168 170 162 159 170 175 181 184 188 186 189 192 192 191 188 185 183 183 196 187 192 190 190 186 183 183 182 184 178 178 175 183 182 178 180 176 185 185 182 189 191 191 183 179 176 163 169 172 176 179 185 185 180 184 186 180 186 191 199 204 201 218 222 227 239 245 251 261 218 231 223 211
217 247 161 223 209 224 226 240 98 257 146 223 203 55 176 175 204 185 194 241 227 230 174 177 172 150 142 154 175 175 182 184 192 192 189 190 189 192 189 187 194 191 186 191 189 190 193 193 187 183 185 181 186 182 182 183 187 184 187 183 188 186 184 192 190 194 193 188 183 183 175 171 177 180 185 187 194 190 191 185 177 184 199 206 192 193 209 220 231 242 249 250 254 253 221 217 219
213 252 213 257 210 231 236 240 224 227 224 207 105 144 232 194 193 117 230 234 236 238 147 137 139 151 163 167 178 185 188 193 195 197 199 204 200 193 191 195 193 191 198 197 192 188 195 193 188 186 185 184 186 182 187 186 188 189 187 188 193 189 192 193 192 192 199 193 186 184 180 179 183 185 190 194 184 196 193 189 185 194 200 209 184 208 204 209 222 229 235 232 226 232 226 230 216
208 236 202 248 227 234 236 231 203 205 222 258 183 250 264 248 318 262 235 239 220 163 117 143 146 157 173 183 183 185 191 196 197 195 199 197 192 189 199 195 194 202 203 196 191 197 190 189 191 191 186 185 185 185 190 187 189 189 192 190 194 187 196 194 191 196 203 192 192 189 187 181 186 189 190 191 184 198 195 192 186 197 201 205 189 204 207 201 211 221 232 231 218 223 220 231 194
202 231 230 241 243 240 236 199 208 196 200 199 193 233 247 275 132 259 246 232 144 112 122 151 154 176 184 186 190 194 192 197 197 196 193 199 197 198 199 197 197 204 199 202 201 198 188 186 193 193 189 183 183 188 190 192 188 193 190 191 193 193 194 192 196 198 203 201 195 189 188 186 179 186 188 188 197 193 194 194 202 196 205 207 196 204 198 202 207 204 208 210 208 210 220 219 192
240 217 265 256 257 240 217 212 221 131 254 188 184 241 280 288 160 233 209 233 168 146 145 161 172 180 188 193 192 196 202 207 200 186 198 195 202 199 198 198 199 199 199 203 201 194 191 194 191 193 190 183 184 191 188 191 191 192 191 190 196 196 192 193 198 199 203 205 193 190 189 188 179 184 186 188 189 187 191 197 202 195 208 204 197 201 195 203 200 205 206 205 204 198 219 216 207
261 234 256 252 245 247 225 209 216 168 242 157 158 318 267 222 234 214 198 140 160 158 165 175 184 186 189 192 196 200 208 200 195 204 209 206 202 200 203 202 195 197 204 200 196 192 197 195 194 195 190 189 188 190 189 193 190 189 190 194 195 191 194 194 198 203 203 204 194 189 189 186 185 181 190 187 189 191 192 197 207 211 208 205 202 207 203 204 206 215 225 210 210 207 206 231 214
267 249 226 285 261 243 230 210 175 168 231 162 135 255 222 235 242 178 207 150 137 156 175 186 191 191 193 190 195 205 207 201 207 213 210 208 206 204 207 203 199 198 195 198 195 200 197 197 195 191 194 195 196 192 188 191 196 191 190 193 189 189 194 194 198 201 203 203 199 193 190 191 189 189 182 194 191 194 199 204 209 218 216 211 209 208 211 209 212 213 227 200 221 199 206 214 193
222 229 161 227 216 244 213 185 173 184 178 177 147 242 258 253 250 228 229 193 166 190 195 194 196 195 195 195 198 203 207 205 209 211 212 212 210 209 211 204 203 201 193 196 198 198 194 197 192 199 195 199 196 198 195 194 191 192 188 190 189 186 190 195 194 195 199 201 198 203 196 194 196 192 190 187 198 198 200 208 213 219 209 211 211 215 211 221 214 221 209 207 220 216 218 216 202
296 161 230 197 214 309 235 201 166 194 220 209 130 247 249 261 265 236 215 208 194 211 203 196 198 198 197 198 202 207 213 208 216 218 217 215 211 212 207 207 202 200 199 199 200 194 197 196 193 197 195 200 200 201 201 197 194 194 192 192 190 190 189 194 194 194 194 194 196 204 204 200 197 196 194 190 195 201 203 208 215 214 209 204 216 218 211 217 218 225 221 198 203 229 224 242 225
240 230 236 214 216 228 327 224 197 200 152 257 191 232 289 289 262 238 219 201 201 213 215 203 201 201 198 200 203 210 213 217 217 217 214 211 215 214 211 209 203 203 199 196 195 194 199 198 194 198 197 199 200 201 202 202 193 195 195 195 198 192 196 199 198 191 187 189 191 200 205 205 202 197 196 194 194 202 207 209 214 211 203 202 209 213 211 216 210 215 225 221 204 216 218 238 243
232 212 233 226 208 142 230 9 215 217 160 210 251 236 239 232 281 351 1 215 225 228 225 216 207 205 204 202 205 208 210 210 212 212 212 207 211 211 212 209 206 202 202 199 195 192 196 194 197 200 199 198 199 200 200 200 198 192 196 199 195 199 203 201 199 193 199 194 184 198 204 208 207 201 197 196 201 205 206 207 210 208 199 201 206 206 217 212 214 206 223 224 215 215 218 219 234
208 204 223 239 263 197 212 181 230 190 230 209 213 229 244 247 250 268 245 223 198 225 230 219 209 210 212 211 209 210 211 212 219 213 208 206 208 209 209 210 206 203 202 200 197 197 194 197 197 199 196 194 198 197 198 200 195 192 195 195 198 204 206 205 196 200 203 198 196 198 202 206 208 206 200 198 203 205 209 210 209 206 196 199 201 206 214 210 211 212 213 228 222 220 211 212 217
199 199 211 211 214 217 215 218 238 184 208 228 209 215 241 245 251 249 250 172 191 225 239 246 226 216 213 213 214 212 214 221 221 215 210 206 206 202 202 203 208 203 199 196 198 195 197 197 196 199 199 192 190 192 189 196 193 192 198 201 209 208 203 202 207 206 199 206 205 201 204 205 205 208 204 201 204 205 207 210 209 203 198 194 201 204 210 205 205 206 217 213 220 236 241 235 222
98 142 193 216 221 232 221 232 214 189 208 226 220 226 240 245 238 241 238 211 200 238 241 232 231 224 221 219 217 218 217 222 214 211 204 206 206 200 197 197 203 203 199 194 195 199 198 196 191 201 197 189 187 189 192 193 196 199 207 206 207 193 198 198 207 208 207 210 207 210 209 206 205 208 210 201 205 207 210 209 208 208 200 200 205 210 206 209 208 204 210 202 207 220 238 217 225
148 194 199 218 217 231 204 223 214 203 190 241 213 226 241 245 244 242 238 210 239 232 229 232 230 229 229 223 224 222 224 235 224 216 217 211 203 199 194 195 194 198 206 194 198 200 198 196 197 200 190 194 196 193 192 197 200 200 197 203 197 195 192 197 209 207 209 207 210 213 212 208 208 207 209 209 207 206 209 211 209 208 199 206 210 211 209 210 208 208 195 213 213 207 224 198 198
207 206 200 222 223 232 266 236 209 215 195 240 206 223 240 248 243 243 231 206 225 230 220 224 214 223 228 227 227 226 223 228 214 218 212 204 201 197 192 196 200 203 201 200 202 196 197 199 203 196 196 195 199 196 193 202 199 200 197 194 193 203 212 209 211 208 204 209 214 215 213 212 211 213 209 210 212 211 212 212 214 210 204 202 206 213 210 213 210 208 199 202 207 226 223 211 185
214 195 187 218 196 177 227 232 179 213 187 197 215 231 245 253 252 249 241 202 232 236 224 230 209 214 221 225 219 219 221 219 215 213 210 205 198 196 195 199 202 200 201 204 199 199 200 204 202 199 199 198 197 200 202 200 195 193 197 182 194 194 197 206 212 212 210 217 222 214 216 214 211 214 211 211 215 214 211 214 214 213 211 203 206 210 210 215 210 213 208 209 191 211 211 231 192
217 212 210 206 178 207 216 217 207 232 239 98 66 284 272 243 255 256 242 217 227 242 239 244 238 227 229 232 230 222 220 216 218 217 216 204 199 201 199 202 197 199 204 202 199 198 201 203 202 199 198 198 199 198 197 188 174 172 172 142 151 192 177 188 204 223 214 216 219 216 219 207 210 213 212 213 213 216 214 215 215 215 215 209 207 214 214 214 211 211 206 205 202 208 216 216 214
214 226 212 187 173 321 228 224 132 243 267 212 157 286 257 213 232 240 237 217 228 236 227 234 233 230 233 236 236 232 236 224 214 212 209 203 202 204 204 203 199 206 206 206 202 202 202 204 202 200 201 200 201 197 190 182 186 183 175 184 191 198 210 199 206 210 208 210 214 217 214 209 211 213 213 214 214 215 217 216 216 216 218 215 210 216 219 215 215 211 210 208 213 214 213 197 219
212 218 205 184 211 228 295 284 179 228 234 223 156 215 264 29 233 228 223 226 227 234 218 230 234 235 234 228 228 229 224 226 232 231 216 205 208 203 204 202 204 204 209 203 201 205 205 203 200 199 200 201 198 192 185 186 189 192 195 200 202 203 210 217 216 217 215 219 219 216 216 212 212 213 216 214 215 215 217 216 216 218 219 219 215 217 222 219 216 216 208 211 215 209 202 213 209
227 204 173 182 209 221 234 224 227 252 22 326 199 200 251 270 248 215 224 228 229 232 226 225 232 235 236 230 224 225 227 222 218 219 217 214 207 199 203 206 203 208 207 196 200 202 202 204 197 198 200 198 195 188 186 190 194 197 200 206 207 212 213 218 209 216 218 216 214 220 216 217 214 215 217 216 216 214 214 218 215 218 219 220 213 219 222 222 221 218 209 214 215 207 205 214 213
221 122 142 201 201 220 180 167 235 263 359 233 225 144 276 251 257 47 144 226 234 238 229 223 233 234 237 233 227 227 228 223 212 215 218 214 210 211 211 206 209 209 202 197 202 201 202 202 197 195 199 198 195 190 190 195 199 198 202 205 213 220 219 224 212 215 215 211 220 219 218 219 216 217 218 218 216 215 212 216 215 218 219 220 216 224 224 222 221 217 211 207 210 214 211 217 215
188 135 111 93 90 79 64 122 187 282 238 242 218 183 216 260 159 185 249 225 227 218 221 224 228 232 233 231 227 228 229 228 222 220 216 214 212 211 210 210 208 208 203 202 204 201 201 196 196 193 201 197 195 193 195 198 199 198 202 209 215 219 217 220 201 214 214 204 221 220 218 220 219 218 219 219 219 216 215 214 217 219 219 219 215 221 222 222 222 222 218 214 212 217 213 213 219
108 113 106 85 64 53 51 74 94 127 238 241 223 193 204 262 202 194 175 221 211 191 229 228 237 242 241 231 223 221 219 219 222 224 224 222 217 213 210 210 210 206 202 199 200 198 197 195 197 198 202 197 193 197 196 200 198 199 208 209 213 218 214 211 213 224 214 208 220 220 217 220 216 221 215 221 221 216 217 215 216 220 220 219 218 220 222 222 222 222 221 217 215 216 216 217 221
136 147 130 112 274 34 28 355 71 212 243 239 201 188 186 233 254 187 210 118 171 185 207 222 232 231 229 224 227 226 216 213 219 220 227 226 224 226 225 225 216 207 201 201 202 197 194 195 195 201 203 199 197 199 197 202 197 205 211 211 214 217 209 209 214 221 212 217 218 220 218 219 222 219 217 220 220 213 215 218 216 217 220 219 220 219 223 222 223 222 222 221 223 221 222 218 218
153 153 144 177 187 150 223 119 222 201 226 274 163 142 210 228 242 171 233 226 225 194 200 216 227 233 226 226 228 223 215 212 216 219 222 221 217 214 210 216 213 211 206 204 200 196 196 195 195 198 205 201 201 197 198 200 200 206 209 211 216 213 210 214 217 222 215 218 218 219 210 218 213 216 217 218 218 206 211 216 212 215 220 219 222 218 222 220 220 221 223 224 224 222 220 218 220
163 164 164 181 176 181 212 198 260 254 254 238 179 165 220 245 274 202 210 238 221 213 222 228 217 222 227 226 228 226 220 215 217 218 219 220 217 215 210 211 209 209 208 203 199 196 196 197 198 201 208 200 200 195 199 200 206 210 209 212 215 207 214 214 219 221 216 218 215 218 215 216 213 219 213 218 208 204 211 215 215 219 220 220 220 223 223 220 219 221 222 224 224 224 221 220 223
189 180 177 189 183 185 201 184 199 208 221 101 200 144 226 215 223 330 246 228 213 220 236 241 235 235 238 237 260 259 245 236 226 223 219 217 218 213 210 211 212 211 207 202 198 199 197 200 200 205 208 201 197 199 199 203 209 212 211 213 213 209 215 214 220 220 216 216 216 217 219 214 218 220 215 216 199 205 211 214 216 220 221 222 221 222 224 223 221 222 224 225 225 220 222 223 226
193 174 183 196 212 76 188 219 110 132 156 154 198 215 210 220 275 285 240 278 280 235 233 245 247 236 238 256 236 229 229 227 220 222 226 227 222 215 212 214 215 212 206 201 200 198 199 204 203 204 205 199 198 201 203 205 210 209 211 211 213 211 213 215 222 220 220 213 214 215 220 216 220 219 217 204 208 204 210 213 213 219 221 223 224 224 224 224 222 223 225 224 228 219 222 220 222
168 161 211 205 97 135 114 38 323 79 53 247 151 288 259 329 286 274 256 216 259 250 244 245 245 234 227 240 240 234 230 223 214 217 223 228 229 224 213 212 213 212 207 203 202 199 201 202 201 206 209 205 201 203 207 209 211 206 211 214 212 210 211 213 218 217 215 209 211 214 217 219 219 217 215 206 210 208 211 211 213 216 218 220 222 223 224 224 222 223 223 223 227 223 227 227 222
141 201 193 82 50 65 165 200 121 119 200 241 175 218 239 115 265 207 243 252 254 230 234 231 240 225 238 239 236 233 237 236 236 238 237 233 227 220 217 216 210 205 204 205 207 204 203 202 198 200 203 201 204 203 207 209 209 209 214 213 213 211 213 218 219 219 207 204 215 216 213 219 218 213 210 208 205 209 213 211 214 215 215 216 219 221 222 223 222 224 222 222 221 218 221 223 231
177 191 151 165 175 206 213 114 199 150 211 234 254 229 244 199 232 278 248 226 248 237 220 223 227 218 222 233 237 238 242 262 260 240 234 232 223 219 214 214 215 213 209 209 209 200 201 204 205 204 203 202 202 202 205 211 210 213 215 214 212 212 215 219 219 217 202 210 217 212 214 221 219 211 210 211 207 212 211 214 215 218 215 217 218 220 219 222 219 223 221 223 218 219 227 234 230
22 76 172 136 98 253 174 197 139 174 229 198 257 135 243 198 235 191 253 226 233 257 217 221 219 210 215 220 223 225 224 222 229 236 232 226 225 221 215 211 209 206 204 206 196 187 201 204 199 204 211 209 205 205 202 207 211 213 217 212 214 212 213 214 211 202 208 215 219 214 217 219 219 209 214 206 213 212 211 213 213 217 216 217 218 220 219 219 219 221 220 220 215 211 217 229 244
158 162 182 187 186 257 140 234 196 161 189 224 247 254 250 231 199 188 216 228 224 228 241 242 244 216 212 212 213 217 216 213 219 223 228 229 235 245 251 252 236 220 194 174 180 192 200 194 200 201 198 195 196 203 200 211 208 213 211 208 210 205 209 199 193 198 207 218 219 216 218 219 205 220 203 211 213 213 213 215 216 215 217 215 216 218 218 220 220 222 220 217 221 226 235 238 237
179 180 188 183 167 163 188 220 113 195 193 209 199 241 248 276 191 190 199 212 234 227 217 228 233 237 219 223 226 217 217 221 217 221 224 231 237 241 244 254 218 178 187 190 198 192 194 197 203 195 195 199 200 203 203 211 203 204 206 212 206 193 192 189 199 202 211 216 215 213 212 202 213 217 201 212 214 212 212 215 216 219 219 220 219 219 215 215 220 227 230 224 220 223 231 232 226